Theta_e
300 300 300 301 301 302 302 302 302 302 302 303 303 303 304 304 305 303 300 305 299 293 293 296 298 292 292 293 288 292 291 293 294 289 289 289 287 289 292 296 293 290 289 288 291 287 284 305 304 296 300 303 303 302
300 300 301 301 302 302 302 302 302 302 303 302 303 303 304 305 306 305 297 303 305 296 294 299 299 300 299 298 296 297 294 294 296 291 291 291 288 292 292 286 298 290 295 290 294 292 302 306 303 305 305 303 303 302
300 300 300 301 301 302 302 302 301 302 302 303 303 303 304 304 305 304 300 302 301 295 293 295 298 304 307 306 306 295 298 300 299 301 297 295 290 295 290 293 295 300 303 296 296 300 301 302 304 304 304 302 303 303
299 299 300 300 301 302 302 302 302 302 302 303 303 304 304 304 306 305 300 303 300 295 288 291 303 299 305 306 307 306 302 304 303 303 297 295 291 299 294 297 295 298 300 298 298 301 302 303 303 303 303 303 301 300
299 299 300 300 300 301 302 302 302 302 303 303 304 305 305 305 306 305 304 304 305 295 288 290 297 301 302 304 304 306 304 302 300 297 294 293 298 296 299 298 296 300 298 295 294 301 300 301 303 305 301 298 297 296
299 299 299 300 300 301 302 302 302 303 303 304 305 305 306 306 306 303 298 303 304 302 292 287 297 297 300 302 302 303 302 300 299 298 295 297 299 295 293 289 301 304 305 305 300 305 304 303 302 301 297 296 296 296
299 299 299 300 300 301 302 302 301 303 304 305 305 306 306 306 304 299 296 301 304 304 292 287 290 298 300 300 302 301 304 300 299 297 294 294 295 297 294 290 301 304 306 306 307 304 300 300 296 298 297 297 298 296
299 299 299 300 300 301 302 302 302 303 304 305 305 306 306 306 304 299 304 304 305 299 295 287 288 294 300 296 295 300 298 299 297 296 296 293 295 297 292 298 301 305 306 305 305 305 301 299 298 297 296 295 294 293
299 299 299 300 301 301 302 302 302 304 304 304 306 306 306 303 300 301 308 306 305 299 291 291 287 287 299 297 298 298 298 292 297 291 292 294 291 289 295 299 301 302 303 302 304 302 300 298 296 297 296 294 293 293
299 299 299 300 301 301 301 302 303 303 303 304 305 301 295 301 306 306 301 297 297 297 297 291 296 291 297 296 294 294 296 292 287 291 294 290 291 297 299 302 303 304 305 305 300 298 298 297 297 296 295 295 295 294
299 299 299 300 300 300 301 302 303 302 305 301 297 296 301 308 302 299 293 293 295 292 297 296 297 293 300 292 291 295 291 294 287 289 289 288 288 295 301 302 304 306 307 307 304 302 302 300 299 298 297 296 296 295
299 299 299 300 300 300 301 302 302 299 298 299 298 301 302 299 296 292 291 295 293 290 295 294 295 297 298 301 293 294 290 292 286 294 290 287 293 299 302 304 304 305 305 304 304 302 302 301 300 299 297 295 295 295
299 299 299 300 300 300 301 302 302 302 302 305 299 296 296 294 286 287 284 288 289 293 295 296 294 296 298 298 294 292 289 288 295 289 287 290 297 301 302 303 304 306 305 303 302 302 302 300 301 299 296 296 296 295
298 299 299 300 300 301 301 302 302 301 300 297 293 286 289 288 289 289 289 291 294 294 295 296 295 293 295 292 292 289 292 292 288 286 286 295 298 300 303 303 302 302 303 303 302 302 301 300 299 299 297 297 296 295
298 299 300 300 301 301 301 301 301 302 300 294 293 286 289 294 294 294 295 295 297 298 297 294 295 293 291 290 291 290 288 286 285 285 293 298 300 302 302 303 301 301 301 299 299 298 298 297 295 295 296 296 296 296
299 299 299 301 301 301 300 301 303 305 301 296 294 291 294 292 292 293 295 295 299 298 297 296 291 289 290 290 288 287 287 286 286 294 298 300 300 301 301 301 300 300 299 297 296 296 295 295 294 294 295 295 295 296
299 296 301 301 300 300 301 299 303 298 295 292 293 297 295 293 292 293 296 298 302 296 291 293 288 288 294 288 288 291 287 290 295 297 300 301 301 301 302 301 301 299 296 296 295 295 294 295 294 294 292 293 293 293
296 299 301 300 299 300 302 302 298 294 290 294 292 296 297 298 297 297 300 301 299 296 295 292 294 290 288 286 287 291 294 295 297 299 300 301 302 303 302 299 298 297 296 296 295 295 294 294 292 292 292 293 293 292
298 299 299 299 298 296 294 298 299 290 292 296 297 298 299 300 302 301 301 303 301 300 297 294 290 289 289 293 291 292 294 294 295 299 299 302 302 301 301 300 298 297 296 295 294 294 294 294 293 292 292 293 291 292
298 299 299 300 300 296 292 295 302 293 290 295 297 297 298 297 301 300 301 300 299 297 293 291 290 291 291 293 294 294 295 297 299 297 297 299 301 301 300 297 296 296 295 297 295 295 294 293 293 293 294 292 291 290
298 300 300 300 299 298 295 295 294 294 295 293 297 297 296 299 299 298 299 302 297 295 292 294 294 296 300 301 300 299 299 299 298 298 298 297 299 298 298 298 297 296 295 294 293 293 293 293 293 293 293 292 291 290
298 300 299 302 297 297 295 298 295 296 294 295 295 296 294 295 297 298 301 296 294 296 298 297 298 299 300 299 299 301 301 301 302 300 295 295 294 294 295 296 296 294 293 294 294 294 294 294 295 293 292 291 290 289
299 299 298 297 293 291 289 299 293 295 291 293 296 293 294 296 299 302 295 297 297 300 301 300 300 301 301 304 303 302 304 303 299 298 297 296 296 296 296 296 296 294 293 293 295 295 294 292 293 293 293 292 290 288
297 294 291 291 292 287 295 292 295 294 294 293 292 291 294 296 301 297 292 293 296 298 298 298 299 300 302 303 302 302 303 303 302 301 300 299 297 296 296 296 297 297 296 297 295 295 295 293 292 293 293 291 290 289
288 288 289 284 292 290 289 289 291 291 289 292 291 292 295 299 293 293 292 294 294 294 295 298 298 300 298 300 302 301 303 302 300 299 301 300 298 296 297 298 298 298 298 296 294 295 293 293 294 294 293 293 291 290
283 289 286 290 291 289 290 289 290 291 292 291 292 296 296 294 290 289 291 293 294 295 296 296 295 297 298 301 300 299 299 301 300 297 298 299 299 297 296 295 293 295 298 298 297 295 294 294 295 292 291 289 287 290
283 286 291 296 294 293 292 294 296 294 291 290 293 292 292 287 288 291 297 298 297 298 299 299 297 296 297 299 303 302 302 302 301 300 301 301 300 300 298 296 295 297 300 299 298 297 296 296 295 294 292 290 288 288
289 291 288 292 292 294 290 291 291 291 293 296 295 290 288 289 290 297 300 302 301 300 300 301 299 299 301 302 303 302 302 301 302 302 301 300 300 299 299 297 295 289 293 294 298 299 298 296 295 294 292 288 286 287
289 293 292 290 291 292 293 292 293 295 298 297 293 292 294 298 302 301 301 301 302 300 299 299 298 301 303 303 303 303 301 300 298 296 295 294 295 296 298 298 295 294 291 288 284 290 294 294 294 292 291 288 286 285
290 295 292 291 290 290 295 299 297 299 299 298 299 298 298 300 303 303 301 300 298 298 299 300 298 299 300 300 299 300 301 301 300 298 296 295 296 297 298 297 296 295 293 291 289 288 286 289 288 289 288 286 285 283
295 295 292 292 292 296 298 299 300 299 298 296 296 294 294 297 300 303 301 300 299 300 299 297 296 299 299 300 299 299 298 302 303 304 302 299 298 298 297 296 296 295 295 295 293 293 290 288 287 286 286 284 284 283
293 292 291 289 293 298 300 297 296 295 295 293 292 294 296 295 292 298 302 301 298 297 291 295 295 296 298 296 297 295 291 298 299 299 299 298 297 297 297 298 298 297 295 294 292 290 289 287 285 285 284 283 284 283
292 292 292 292 293 293 297 295 294 291 293 292 294 295 294 293 291 297 302 302 299 297 297 296 295 295 295 296 294 292 290 289 287 286 287 287 288 292 298 298 297 296 293 288 288 286 285 283 282 281 279 277 277 278
Wind_Speed
15 16 17 18 19 20 20 21 22 22 22 23 23 23 23 21 20 10 8 7 5 3 11 8 10 18 12 10 5 9 7 3 4 6 5 4 2 2 3 7 7 4 5 4 6 4 2 6 8 8 11 14 19 20
16 16 17 19 18 18 20 22 21 21 21 23 23 23 23 21 18 14 6 6 6 5 9 16 18 17 17 12 8 2 4 8 3 3 4 3 3 5 1 5 6 5 4 5 5 4 6 16 17 12 18 19 16 17
16 17 17 18 18 19 20 20 21 22 22 23 23 23 23 22 19 14 6 6 3 3 8 5 3 6 4 4 4 3 4 4 8 7 3 2 2 3 3 5 10 7 8 9 9 11 16 19 18 19 19 18 17 17
17 17 18 18 19 19 20 21 21 23 24 24 23 23 23 21 20 18 5 6 1 2 4 6 5 10 10 11 13 8 11 10 9 5 3 3 3 5 5 4 7 2 6 12 19 15 16 15 16 16 16 16 18 18
17 17 18 19 19 20 20 20 21 23 23 25 25 24 22 22 21 12 6 1 1 1 4 7 16 3 10 11 14 11 6 6 5 4 3 4 3 4 4 5 6 4 7 7 7 7 15 13 10 16 18 17 17 18
17 17 18 19 19 20 21 21 21 23 24 26 26 25 23 21 18 5 2 2 1 1 3 4 5 5 13 14 13 7 6 4 2 2 3 4 1 3 5 5 3 12 13 16 7 12 13 14 16 18 21 18 17 16
17 17 18 19 20 20 21 22 24 24 26 26 25 24 22 17 5 2 2 1 1 1 2 5 4 3 6 7 4 4 4 2 1 3 4 4 4 4 4 2 6 10 14 16 12 15 15 14 16 19 20 18 18 15
16 17 18 19 20 20 21 23 25 25 27 28 27 24 20 15 7 4 3 7 1 2 1 3 4 4 2 4 3 3 3 3 4 2 3 4 4 4 4 8 8 14 17 17 13 12 15 18 18 18 17 15 15 13
17 18 19 19 19 20 21 22 24 26 29 30 27 23 3 2 3 0 6 6 2 2 2 2 3 4 3 4 2 4 1 3 2 3 3 4 4 5 5 9 9 9 11 11 16 18 18 18 17 15 16 14 14 12
17 17 18 19 18 20 21 22 23 27 31 32 7 2 2 1 6 8 2 2 3 3 3 2 2 3 2 2 3 2 2 2 2 1 2 3 3 3 7 6 8 6 14 16 16 13 17 15 13 12 14 13 12 12
18 19 19 19 20 21 21 21 21 25 14 5 4 3 6 4 2 2 3 3 2 2 3 4 4 3 2 3 3 2 2 2 3 1 3 1 1 3 7 6 7 11 13 4 12 9 9 12 12 13 15 15 14 13
18 19 19 20 20 20 21 18 19 9 5 8 7 7 4 3 3 4 3 1 4 3 4 4 5 1 3 2 2 3 2 1 1 2 2 2 1 7 8 9 11 12 14 12 11 11 9 14 13 14 13 14 13 11
18 19 20 20 21 20 20 18 20 19 17 3 3 4 2 3 4 2 5 3 4 6 5 6 6 2 3 2 3 2 2 2 2 3 2 2 3 6 10 10 7 10 16 15 14 11 15 14 14 16 14 11 10 11
19 20 20 20 20 12 15 18 20 12 5 3 2 5 2 3 4 4 5 4 3 4 5 7 4 2 3 4 2 3 3 2 1 2 2 2 6 9 9 12 10 15 13 14 13 12 13 15 13 14 11 10 10 7
20 21 20 14 10 13 17 21 21 5 3 3 2 3 3 3 3 2 4 4 3 3 4 4 3 2 2 3 1 3 3 3 3 0 2 1 5 9 12 12 11 10 7 10 10 10 14 14 12 10 8 8 8 9
19 20 3 6 10 16 21 17 5 3 3 2 3 2 4 2 1 2 4 3 3 3 3 2 2 2 2 2 2 2 3 5 4 4 3 2 8 8 9 11 10 10 8 9 12 13 12 12 11 9 9 8 8 10
18 5 10 11 16 19 18 5 3 3 2 3 3 4 2 3 4 3 3 2 3 3 2 3 2 1 3 1 1 5 3 1 3 3 4 5 6 7 7 9 9 11 11 11 11 12 11 9 10 10 11 10 10 9
8 9 10 16 14 11 3 3 3 2 4 5 4 4 5 4 3 3 3 3 1 3 2 2 4 2 2 3 2 2 2 4 4 4 4 3 6 6 5 9 11 10 10 11 11 9 9 11 9 7 8 7 7 7
11 11 16 16 9 4 3 2 3 3 4 5 4 3 2 2 4 4 3 1 2 1 2 3 3 1 2 3 3 3 3 2 2 1 3 4 5 6 5 8 10 11 11 9 8 6 6 8 7 5 5 5 5 4
16 17 17 12 5 3 3 3 2 2 4 4 6 3 3 3 5 4 4 2 2 1 2 2 3 2 2 2 3 2 2 3 2 5 4 4 4 4 6 8 8 8 7 7 6 7 6 5 4 4 4 5 5 5
7 1 5 5 4 5 3 3 3 3 3 4 6 5 3 1 3 2 2 3 1 1 1 1 2 3 5 1 3 3 3 2 3 6 5 7 6 4 7 7 6 5 4 4 4 5 6 5 5 4 6 8 6 5
3 10 2 4 3 5 5 4 2 3 3 4 6 6 4 3 3 3 4 2 1 1 2 2 1 2 3 4 4 4 7 8 7 7 5 7 7 5 5 4 5 4 5 4 5 4 6 5 7 7 7 6 5 4
8 3 3 3 2 1 6 2 3 3 4 3 2 3 2 1 1 6 2 2 2 3 2 4 0 3 4 5 5 7 8 8 7 5 5 4 5 5 5 4 4 5 5 4 4 7 6 9 8 7 8 6 5 3
2 3 3 3 4 4 2 3 4 3 3 3 3 3 2 1 1 2 3 2 2 4 4 4 3 3 4 4 4 5 6 5 2 0 9 8 7 6 5 5 4 7 5 7 7 6 5 6 8 5 5 5 5 5
1 3 3 4 4 4 4 4 4 3 4 4 5 2 1 1 0 2 3 2 2 3 3 3 3 2 2 4 3 5 5 6 6 4 6 6 4 4 3 5 7 9 9 7 5 7 6 4 4 5 2 2 5 7
2 4 4 4 3 4 2 4 4 4 3 1 3 2 2 2 1 4 3 2 2 2 1 2 2 2 2 4 6 1 3 5 5 2 2 3 6 8 8 7 5 4 6 6 6 8 6 5 6 8 6 6 6 6
3 4 4 4 4 5 4 4 4 3 2 1 1 1 2 1 3 2 2 3 2 1 2 2 1 1 3 5 7 3 4 5 6 4 5 4 3 4 7 7 6 4 5 6 7 6 6 6 6 7 6 6 5 5
4 5 3 2 3 4 4 4 2 3 1 1 1 1 1 2 2 3 3 3 4 4 3 3 3 1 3 5 6 5 7 7 5 5 7 7 6 6 7 7 8 14 6 4 4 6 6 6 6 6 7 7 6 6
5 5 4 7 6 3 3 2 2 3 4 3 3 2 2 3 2 2 4 4 5 5 3 1 1 1 3 4 5 5 3 5 8 10 8 4 4 4 4 6 7 7 7 8 12 10 10 7 7 7 8 8 6 6
7 7 5 5 3 2 3 3 1 2 2 3 4 4 2 3 3 3 2 1 3 4 3 2 2 1 2 4 5 5 3 4 4 4 5 6 6 4 4 7 6 8 7 7 7 7 9 8 8 6 6 6 6 5
3 3 4 6 6 2 4 5 2 3 3 4 4 4 4 2 2 4 4 3 4 4 4 3 3 1 5 7 3 3 2 2 3 2 6 8 8 7 6 7 7 6 5 5 4 5 6 5 6 5 8 9 6 9
3 3 3 3 2 2 2 1 1 1 1 2 2 1 2 1 1 2 3 2 2 3 3 3 4 2 6 7 8 7 6 6 6 7 10 9 8 9 8 7 6 5 4 4 4 5 5 8 7 7 7 9 6 11
3 4 6 4 2 3 2 3 3 2 2 2 2 2 3 2 1 2 2 3 3 3 4 4 4 3 5 7 8 7 9 9 10 11 13 12 10 8 5 3 4 4 8 10 11 11 12 13 11 11 11 11 11 10
Wind_Direction
326 327 328 330 329 330 331 331 328 326 327 329 329 329 329 329 330 336 295 299 338 273 285 265 286 309 295 291 300 302 316 356 318 1 4 350 333 298 207 137 118 43 78 87 65 96 80 346 27 81 119 95 97 96
326 325 328 329 331 329 328 326 326 324 326 327 328 326 327 328 328 339 296 318 299 241 274 295 284 279 263 268 296 281 287 298 288 2 343 352 341 316 41 72 309 44 101 124 120 127 86 71 93 96 105 107 106 105
326 326 325 326 328 327 328 326 323 323 325 325 324 324 324 325 325 326 294 297 281 287 289 323 305 281 330 330 216 284 271 291 303 307 285 311 286 301 64 79 76 62 68 109 90 78 88 88 83 86 90 91 94 93
322 324 325 326 326 327 327 325 322 322 322 322 320 319 318 320 318 319 289 290 191 282 285 289 325 350 328 336 319 260 263 285 273 284 223 293 17 359 346 79 77 91 99 100 101 99 91 83 94 99 96 94 89 85
321 323 323 326 327 327 324 323 323 318 317 319 323 322 319 316 313 307 272 179 169 211 295 303 300 328 325 327 319 304 256 271 302 336 23 8 360 9 308 26 23 33 123 116 121 120 117 117 111 100 94 91 90 91
320 321 322 325 326 324 323 322 322 317 317 318 320 318 315 313 315 285 205 186 179 220 295 301 338 291 314 321 314 309 303 296 330 323 324 18 178 45 50 5 306 75 78 110 122 117 107 104 97 98 95 89 84 82
320 322 321 323 326 324 323 324 323 319 317 315 314 310 307 305 298 281 336 22 72 181 257 293 293 286 300 303 291 333 321 307 52 319 13 328 329 34 80 336 51 76 101 107 112 109 96 93 100 96 93 91 87 84
321 319 322 326 325 324 324 324 323 321 318 315 310 306 298 292 275 281 230 203 224 249 265 296 293 300 26 302 330 343 337 317 339 28 360 348 346 49 63 269 78 90 105 108 110 105 100 106 99 98 100 101 99 96
316 316 321 326 325 325 325 325 325 324 320 314 314 303 276 213 220 252 151 152 187 257 300 263 312 320 319 260 307 332 338 325 338 41 348 28 354 49 24 58 76 109 120 117 115 114 112 110 113 117 114 109 106 105
322 324 322 325 327 327 327 327 328 327 318 311 293 284 269 35 136 144 165 201 203 192 223 255 252 273 222 301 301 341 341 306 32 36 6 34 58 82 59 52 51 77 130 130 120 120 122 129 133 128 121 118 115 109
323 323 324 323 327 327 328 326 330 328 312 331 338 333 330 307 268 240 268 210 214 237 197 225 229 295 281 314 311 347 313 4 36 273 110 129 67 111 86 91 61 86 106 152 124 130 112 122 118 111 110 108 107 106
318 321 321 321 323 326 324 321 326 331 312 291 294 291 259 265 235 266 254 162 204 39 12 355 325 49 297 346 311 334 297 112 104 129 72 70 126 110 93 94 64 100 105 90 94 91 90 98 99 105 105 102 105 109
316 318 317 318 319 320 314 313 317 313 304 238 208 243 218 297 17 351 350 8 24 353 354 330 323 332 340 333 302 343 318 266 13 66 62 233 163 117 108 100 82 108 111 102 87 81 88 91 94 100 106 111 111 104
315 315 316 316 316 314 310 313 315 321 282 273 300 304 247 33 23 7 335 346 320 320 335 315 301 4 351 341 329 292 318 331 287 136 127 169 116 109 117 120 118 113 121 126 130 124 120 120 120 116 118 110 112 128
314 312 311 302 320 320 317 313 308 287 270 284 288 283 21 20 26 324 300 276 291 336 311 323 312 8 295 310 304 331 297 46 352 340 135 106 103 117 117 123 118 120 118 107 112 107 99 95 93 87 91 103 97 93
314 307 248 302 328 324 315 312 269 190 237 260 258 306 347 321 259 319 294 306 311 316 317 294 299 304 295 279 285 300 5 40 326 341 71 172 100 109 109 116 105 104 95 91 94 98 98 94 94 93 82 79 82 77
306 232 319 337 339 320 302 274 263 239 295 261 244 184 189 272 269 257 272 287 310 346 332 305 318 317 280 280 33 27 53 339 346 51 66 19 81 89 102 111 111 98 98 97 96 96 99 96 90 84 83 80 82 81
272 293 322 345 342 306 272 205 273 278 254 238 237 218 183 196 235 266 242 266 263 347 316 339 299 312 330 23 59 60 58 10 356 14 71 71 79 116 99 100 104 106 102 102 106 103 96 97 97 98 98 99 102 113
293 299 304 308 318 307 294 249 229 268 273 309 284 275 281 217 166 121 239 221 92 39 299 296 252 33 24 25 23 318 293 279 287 89 69 45 46 87 94 97 101 95 101 105 102 105 116 115 128 133 149 152 154 167
285 280 275 283 261 259 259 242 218 260 281 312 301 280 234 244 116 109 254 172 186 199 262 17 9 354 257 250 212 240 254 257 190 119 96 63 23 88 95 101 106 109 107 104 103 103 111 127 138 158 159 138 107 75
299 250 287 202 201 232 282 287 224 243 296 287 296 300 267 216 119 145 226 166 222 70 92 119 235 264 270 254 151 185 153 122 98 114 130 136 179 116 103 114 114 120 122 119 128 142 140 127 134 101 85 87 91 87
286 307 267 202 253 213 237 237 273 302 269 277 291 261 251 240 137 182 124 104 213 216 140 158 230 307 339 119 167 191 162 165 179 160 136 102 102 100 115 152 140 137 132 149 126 138 120 126 103 108 108 107 96 85
284 241 242 257 279 311 255 227 248 225 248 253 255 254 219 74 168 144 88 94 96 64 82 77 181 285 280 287 205 216 238 223 166 160 153 141 149 161 170 185 142 132 118 141 123 105 98 97 104 112 118 116 115 119
202 259 272 270 216 255 257 218 215 261 261 239 258 284 103 183 149 120 90 58 37 58 48 16 355 321 291 265 222 212 199 199 58 209 171 185 175 165 165 159 156 139 141 110 121 119 110 109 124 130 138 155 165 173
274 254 182 270 258 252 232 233 216 219 250 246 254 68 323 112 287 118 101 108 45 40 342 346 325 24 336 312 305 130 211 120 182 91 245 172 151 142 119 95 97 108 118 118 120 117 123 134 160 163 130 129 155 128
254 231 180 250 229 240 286 325 0 299 275 270 52 5 352 299 24 54 53 23 0 352 13 350 347 336 334 335 315 151 99 128 124 100 28 79 94 111 116 114 107 105 129 131 137 130 142 175 138 126 120 105 78 91
270 266 237 251 269 284 298 312 317 262 267 90 70 36 280 31 74 147 188 197 146 184 83 120 203 346 328 318 312 2 98 84 106 92 51 44 66 142 136 139 142 157 138 132 136 151 161 142 127 125 131 116 106 70
255 269 263 295 298 289 288 292 303 291 62 19 273 309 113 48 109 164 190 176 138 127 129 137 173 233 283 303 305 334 107 108 101 99 79 67 57 54 84 80 83 85 76 54 130 142 138 139 139 125 118 117 102 82
231 247 269 276 270 260 270 280 75 304 359 15 345 38 49 73 131 147 156 153 134 137 145 121 111 291 297 318 312 302 129 139 131 129 123 113 90 65 90 99 91 94 86 80 55 68 79 88 92 91 97 111 108 82
249 234 223 252 256 267 42 349 118 287 2 11 333 333 22 90 39 48 86 125 137 141 156 133 153 280 320 295 278 219 179 156 145 156 158 154 143 136 110 108 107 101 95 90 94 93 85 86 80 85 96 96 96 114
271 302 243 249 271 250 165 244 85 49 24 19 354 323 340 14 28 47 25 45 101 127 121 125 112 290 280 278 218 257 162 114 100 115 128 114 117 106 101 95 97 105 111 110 116 104 111 145 132 132 109 105 102 97
271 257 272 280 270 317 266 126 46 41 47 317 305 239 287 61 108 73 355 0 64 113 78 112 131 42 356 17 53 42 47 51 42 86 97 103 102 104 99 89 82 84 106 155 161 129 126 103 103 95 96 114 103 93
224 264 286 296 234 237 179 164 200 224 178 231 231 181 179 192 167 116 98 62 58 53 117 98 91 73 37 52 77 77 67 68 61 60 68 69 74 83 94 123 142 158 100 81 72 73 79 83 79 83 84 82 75 73